C/2022 S4 ( Lemmon )

Japanese version
Home page
Updated on September 2, 2023

---------------------------------------------------------------------

* Profile

Discovery Date September 19, 2022
Magnitude 20.6 mag
Discoverer Mt. Lemmon

* Pictures

* Orbital Elements

Epoch 2023 Sept. 13.0 TT = JDT 2460200.5
T 2024 July 18.42363 TT                                 Rudenko
q   2.7633537            (2000.0)            P               Q
z  +0.0003154      Peri.  268.47180     +0.14584161     -0.76046935
 +/-0.0000060      Node   220.17405     +0.26948152     -0.58489963
e   0.9991284      Incl.  101.21865     -0.95189807     -0.28209713
>From 185 observations 2022 Aug. 26-2023 Aug. 27, mean residual 0".4.

* Finding Charts

* Magnitudes Graph

        m1 = 7.5 + 5 log d + 10.0 log r

---------------------------------------------------------------------

The orbital elements are published on M.P.E.C. 2023-Q150.
The charts are made with StellaNavigator Ver.10 (AstroArts).
The magnitudes graphs are made with Comet for Windows.

---------------------------------------------------------------------

Copyright(C) Seiichi Yoshida (comet@aerith.net). All rights reserved.